Total_Precipitation_Accumulation
0.11 0.21 0.23 0.23 0.22 0.18 0.14 0.12 0.21 0.23 0.29 0.34 0.29 0.35 0.41 0.53 0.55 0.58 0.47 0.36 0.41 0.41 0.44 0.50 0.49 0.56 0.53 0.48 0.46 0.54 0.70 0.78 0.87 0.84 0.75 0.70 0.68 0.64 0.61 0.66 0.68 0.73 0.78 0.82
0.13 0.17 0.22 0.26 0.25 0.18 0.13 0.11 0.14 0.19 0.25 0.28 0.29 0.38 0.40 0.41 0.38 0.39 0.34 0.26 0.28 0.39 0.45 0.41 0.37 0.38 0.33 0.32 0.37 0.45 0.54 0.61 0.73 0.82 0.77 0.68 0.66 0.67 0.65 0.70 0.74 0.77 0.79 0.83
0.20 0.19 0.21 0.31 0.31 0.23 0.14 0.13 0.18 0.25 0.30 0.28 0.25 0.29 0.34 0.35 0.34 0.37 0.35 0.23 0.20 0.26 0.34 0.32 0.29 0.26 0.29 0.32 0.39 0.47 0.56 0.65 0.75 0.83 0.83 0.78 0.72 0.75 0.75 0.82 0.87 0.85 0.82 0.80
0.26 0.34 0.44 0.32 0.27 0.26 0.26 0.24 0.24 0.32 0.29 0.31 0.33 0.38 0.40 0.42 0.38 0.32 0.28 0.23 0.18 0.19 0.23 0.26 0.29 0.29 0.33 0.39 0.49 0.56 0.64 0.74 0.84 0.90 0.89 0.88 0.90 0.95 1.00 1.03 1.03 1.00 0.94 0.87
0.41 0.47 0.43 0.38 0.27 0.29 0.35 0.47 0.45 0.50 0.46 0.41 0.42 0.43 0.42 0.38 0.35 0.34 0.27 0.25 0.24 0.22 0.27 0.33 0.36 0.36 0.45 0.54 0.64 0.73 0.79 0.86 0.94 1.03 1.07 1.09 1.12 1.13 1.17 1.21 1.15 1.07 1.00 0.99
0.51 0.59 0.57 0.50 0.38 0.35 0.46 0.83 0.66 0.59 0.56 0.50 0.50 0.53 0.50 0.46 0.44 0.39 0.32 0.30 0.30 0.30 0.37 0.44 0.51 0.55 0.64 0.70 0.77 0.87 0.93 1.07 1.23 1.36 1.38 1.36 1.43 1.42 1.36 1.30 1.23 1.24 1.20 1.17
0.64 0.64 0.65 0.54 0.50 0.50 0.83 1.07 0.77 0.61 0.57 0.60 0.68 0.65 0.59 0.49 0.48 0.43 0.36 0.36 0.34 0.34 0.41 0.55 0.65 0.74 0.85 0.97 1.06 1.01 1.07 1.22 1.44 1.59 1.66 1.70 1.77 1.75 1.68 1.63 1.61 1.57 1.48 1.45
0.76 0.85 0.90 0.66 0.64 0.90 1.04 0.85 0.85 0.80 0.74 0.71 0.68 0.60 0.51 0.47 0.46 0.42 0.39 0.43 0.42 0.41 0.51 0.67 0.79 0.86 0.97 1.04 1.03 1.05 1.12 1.26 1.40 1.55 1.60 1.68 1.86 1.91 1.90 1.88 1.82 1.78 1.74 1.62
0.90 0.96 0.85 0.70 0.77 0.87 0.90 0.91 0.88 0.85 0.79 0.71 0.68 0.59 0.48 0.43 0.41 0.40 0.39 0.42 0.43 0.48 0.65 0.81 0.95 1.04 1.11 1.04 1.09 1.13 1.20 1.33 1.47 1.55 1.62 1.70 1.75 1.75 1.77 1.83 1.82 1.75 1.74 1.67
1.00 1.03 0.94 0.83 0.73 0.66 0.70 0.75 0.75 0.72 0.73 0.73 0.73 0.67 0.56 0.45 0.37 0.38 0.38 0.35 0.38 0.44 0.55 0.67 0.79 0.90 1.04 1.10 1.17 1.23 1.30 1.36 1.45 1.57 1.59 1.62 1.74 1.83 1.89 1.97 2.04 1.94 1.83 1.74
1.11 1.02 0.86 0.93 0.93 0.83 0.83 0.87 0.84 0.73 0.70 0.72 0.70 0.67 0.57 0.49 0.43 0.38 0.37 0.35 0.38 0.45 0.52 0.59 0.66 0.74 0.83 0.91 1.05 1.15 1.23 1.29 1.34 1.41 1.50 1.58 1.65 1.72 1.72 1.78 1.77 1.73 1.66 1.63
1.18 1.08 1.02 1.03 0.95 0.85 0.87 0.84 0.87 0.88 0.85 0.68 0.58 0.61 0.57 0.51 0.43 0.41 0.40 0.40 0.43 0.45 0.48 0.53 0.60 0.73 0.80 0.89 1.04 1.19 1.29 1.32 1.28 1.28 1.34 1.41 1.46 1.45 1.40 1.33 1.30 1.25 1.24 1.24
0.92 0.84 0.86 0.92 0.88 0.75 0.71 0.69 0.67 0.68 0.67 0.61 0.54 0.49 0.47 0.46 0.44 0.42 0.39 0.39 0.43 0.46 0.48 0.52 0.56 0.66 0.75 0.84 0.96 1.09 1.18 1.20 1.18 1.19 1.26 1.30 1.33 1.36 1.39 1.32 1.19 1.11 1.07 1.03
0.73 0.68 0.68 0.70 0.72 0.72 0.69 0.62 0.52 0.46 0.46 0.45 0.47 0.48 0.44 0.45 0.45 0.45 0.45 0.43 0.41 0.41 0.43 0.47 0.53 0.58 0.67 0.78 0.89 0.96 1.02 1.05 1.08 1.12 1.18 1.26 1.32 1.39 1.50 1.58 1.52 1.34 1.14 1.03
0.72 0.66 0.63 0.55 0.55 0.59 0.56 0.49 0.40 0.35 0.38 0.42 0.39 0.35 0.32 0.31 0.32 0.33 0.34 0.35 0.37 0.39 0.45 0.49 0.54 0.59 0.68 0.81 0.90 0.92 0.93 0.93 0.94 0.98 1.03 1.09 1.12 1.20 1.29 1.39 1.42 1.33 1.18 1.05
0.79 0.73 0.62 0.52 0.55 0.58 0.54 0.49 0.40 0.34 0.33 0.37 0.39 0.34 0.28 0.26 0.28 0.28 0.29 0.33 0.42 0.47 0.52 0.59 0.63 0.66 0.74 0.84 0.89 0.90 0.86 0.84 0.85 0.86 0.86 0.86 0.88 0.96 1.05 1.16 1.21 1.15 1.07 0.96
0.80 0.80 0.67 0.58 0.55 0.53 0.51 0.45 0.37 0.32 0.28 0.27 0.27 0.25 0.24 0.26 0.29 0.31 0.34 0.37 0.42 0.47 0.53 0.60 0.63 0.66 0.78 0.89 0.92 0.92 0.85 0.77 0.73 0.73 0.73 0.75 0.80 0.86 0.90 0.93 0.99 0.95 0.88 0.76
0.72 0.72 0.67 0.60 0.54 0.48 0.47 0.41 0.37 0.35 0.31 0.27 0.24 0.23 0.26 0.33 0.43 0.48 0.48 0.48 0.48 0.48 0.48 0.53 0.58 0.65 0.79 0.91 0.95 0.93 0.84 0.74 0.67 0.64 0.67 0.69 0.71 0.78 0.83 0.84 0.81 0.78 0.73 0.59
0.62 0.61 0.63 0.63 0.61 0.58 0.54 0.45 0.40 0.37 0.33 0.30 0.30 0.31 0.35 0.42 0.53 0.58 0.56 0.59 0.67 0.72 0.64 0.56 0.58 0.59 0.68 0.84 0.97 0.98 0.86 0.73 0.63 0.59 0.60 0.61 0.64 0.74 0.80 0.78 0.70 0.65 0.60 0.56
0.68 0.70 0.75 0.75 0.73 0.71 0.63 0.55 0.48 0.42 0.36 0.33 0.33 0.36 0.42 0.48 0.57 0.64 0.64 0.63 0.67 0.77 0.78 0.72 0.61 0.55 0.59 0.74 0.92 0.90 0.82 0.73 0.64 0.55 0.55 0.60 0.63 0.69 0.73 0.72 0.66 0.61 0.57 0.56
0.75 0.81 0.84 0.77 0.71 0.66 0.59 0.55 0.53 0.50 0.44 0.41 0.43 0.49 0.56 0.59 0.58 0.67 0.76 0.71 0.61 0.68 0.77 0.76 0.66 0.57 0.56 0.67 0.84 0.87 0.80 0.72 0.62 0.53 0.51 0.55 0.58 0.64 0.67 0.68 0.65 0.59 0.58 0.59
0.85 0.90 0.85 0.74 0.67 0.62 0.54 0.49 0.47 0.45 0.43 0.44 0.49 0.58 0.73 0.80 0.75 0.72 0.67 0.66 0.65 0.75 0.80 0.74 0.65 0.56 0.50 0.56 0.67 0.76 0.73 0.66 0.60 0.53 0.47 0.47 0.54 0.61 0.63 0.63 0.60 0.57 0.56 0.58
0.75 0.75 0.70 0.60 0.52 0.44 0.36 0.34 0.36 0.37 0.38 0.43 0.53 0.68 0.89 0.93 0.90 0.93 0.79 0.60 0.61 0.71 0.73 0.68 0.60 0.50 0.44 0.46 0.53 0.61 0.62 0.61 0.57 0.49 0.41 0.42 0.45 0.50 0.53 0.50 0.51 0.53 0.49 0.45
0.49 0.46 0.40 0.36 0.34 0.33 0.31 0.29 0.30 0.31 0.35 0.42 0.48 0.62 0.87 1.03 0.91 0.73 0.68 0.65 0.64 0.62 0.60 0.59 0.52 0.45 0.43 0.42 0.44 0.51 0.56 0.58 0.54 0.48 0.42 0.42 0.43 0.44 0.47 0.46 0.45 0.42 0.38 0.38
0.39 0.32 0.28 0.29 0.33 0.37 0.38 0.38 0.39 0.40 0.47 0.53 0.52 0.55 0.71 0.93 0.97 0.73 0.60 0.56 0.57 0.55 0.52 0.54 0.55 0.54 0.46 0.40 0.39 0.46 0.52 0.55 0.55 0.50 0.45 0.46 0.43 0.45 0.46 0.44 0.43 0.40 0.39 0.40
0.35 0.31 0.30 0.31 0.33 0.39 0.46 0.56 0.66 0.69 0.78 0.89 0.83 0.74 0.80 0.84 0.79 0.69 0.59 0.51 0.49 0.51 0.49 0.52 0.58 0.60 0.52 0.44 0.44 0.48 0.51 0.56 0.56 0.53 0.50 0.48 0.44 0.43 0.44 0.43 0.43 0.42 0.39 0.36
0.39 0.34 0.35 0.37 0.38 0.43 0.56 0.73 0.89 0.96 1.07 1.25 1.28 1.06 0.98 0.96 0.86 0.75 0.67 0.60 0.58 0.56 0.54 0.52 0.52 0.53 0.54 0.52 0.49 0.48 0.52 0.60 0.60 0.59 0.56 0.49 0.44 0.42 0.41 0.38 0.36 0.36 0.33 0.30